Sarasota, FL

8:08 AM EST on December 13, 2019 (GMT -0500)
Sarasota-bradenton

Weather History for KSRQ - October, 2019

Change the Weather History Date:

Sunday, October 13, 2019

  Actual Average Record
Temperature  
Mean Temperature 81 °F 77 °F  
Max Temperature 91 °F 86 °F 93 °F (1965)
Min Temperature 71 °F 69 °F 52 °F (1980)
Degree Days  
Heating Degree Days 0 0  
Month to date heating degree days 0 0  
Since 1 July heating degree days 0 0  
Cooling Degree Days 16 12  
Month to date cooling degree days 237 176  
Year to date cooling degree days 3694 2965  
Growing Degree Days 31 (Base 50)    
Moisture  
Dew Point 67 °F    
Average Humidity 67    
Maximum Humidity 87    
Minimum Humidity 45    
Precipitation  
Precipitation 0.00 in 0.11 in 1.15 in (1965)
Month to date precipitation 0.34 1.59  
Year to date precipitation 43.72 47.02  
Sea Level Pressure  
Sea Level Pressure 30.00 in    
Wind  
Wind Speed 6 mph ()    
Max Wind Speed 13 mph    
Max Gust Speed 20 mph    
Visibility 10.0 miles    
Events      
T = Trace of Precipitation, MM = Missing Value Source: Averaged Metar Reports

Daily Weather History Graph

Daily Weather History Graph

Search for Another Location

Airport or City:

Astronomy

Oct. 13, 2019 Rise Set
Actual Time 7:28 AM EDT 7:03 PM EDT
Civil Twilight 7:05 AM EDT 7:27 PM EDT
Nautical Twilight 6:38 AM EDT 7:54 PM EDT
Astronomical Twilight 6:11 AM EDT 8:21 PM EDT
Moon 7:20 PM EDT 7:09 AM EDT
Length of Visible Light 12h 21m
Length of Day
11h 34m
Full, 100% of the Moon is Illuminated
Oct 13
Full
Oct 13
Full
Oct 21
Last Quarter
Oct 27
New
Nov 4
First Quarter

Hourly Weather History & Observations

Time (EDT) Temp. Heat Index Dew Point Humidity Pressure Visibility Wind Dir Wind Speed Gust Speed Precip Events Conditions
12:53 AM 75.0 °F - 68.0 °F 79% 30.01 in 10.0 mi ESE 8.1 mph - N/A   Clear
1:53 AM 73.9 °F - 68.0 °F 82% 30.00 in 10.0 mi ESE 6.9 mph - N/A   Clear
2:53 AM 73.0 °F - 68.0 °F 84% 29.99 in 10.0 mi ESE 6.9 mph - N/A   Clear
3:53 AM 73.0 °F - 66.9 °F 81% 29.97 in 10.0 mi ESE 6.9 mph - N/A   Clear
4:53 AM 72.0 °F - 66.9 °F 84% 29.97 in 10.0 mi ENE 3.5 mph - N/A   Clear
5:53 AM 71.1 °F - 66.9 °F 87% 29.99 in 10.0 mi ENE 3.5 mph - N/A   Clear
6:53 AM 71.1 °F - 66.9 °F 87% 30.00 in 10.0 mi East 5.8 mph - N/A   Clear
7:53 AM 71.1 °F - 66.9 °F 87% 30.01 in 10.0 mi ENE 5.8 mph - N/A   Clear
8:53 AM 75.0 °F - 68.0 °F 79% 30.02 in 10.0 mi ENE 6.9 mph - N/A   Clear
9:53 AM 80.1 °F 82.3 °F 66.9 °F 64% 30.03 in 10.0 mi East 9.2 mph - N/A   Clear
10:53 AM 84.0 °F 86.5 °F 66.9 °F 56% 30.04 in 10.0 mi East 10.4 mph - N/A   Clear
11:53 AM 86.0 °F 88.2 °F 66.0 °F 51% 30.03 in 10.0 mi ESE 9.2 mph - N/A   Clear
1:53 PM 88.0 °F 89.6 °F 64.9 °F 46% 30.00 in 10.0 mi NE 5.8 mph - N/A   Partly Cloudy
2:53 PM 90.0 °F 92.4 °F 66.0 °F 45% 29.99 in 10.0 mi West 6.9 mph - N/A   Overcast
3:53 PM 89.1 °F 92.9 °F 68.0 °F 50% 29.96 in 10.0 mi WNW 8.1 mph - N/A   Mostly Cloudy
4:53 PM 89.1 °F 92.9 °F 68.0 °F 50% 29.96 in 10.0 mi Variable 4.6 mph - N/A   Scattered Clouds
5:53 PM 89.1 °F 91.3 °F 66.0 °F 46% 29.96 in 10.0 mi East 8.1 mph - N/A   Scattered Clouds
6:53 PM 86.0 °F 88.2 °F 66.0 °F 51% 29.96 in 10.0 mi East 6.9 mph - N/A   Partly Cloudy
7:53 PM 82.9 °F 85.4 °F 66.9 °F 58% 29.98 in 10.0 mi NE 4.6 mph - N/A   Clear
8:53 PM 81.0 °F 83.3 °F 66.9 °F 62% 30.00 in 10.0 mi ENE 3.5 mph - N/A   Clear
9:53 PM 79.0 °F - 68.0 °F 69% 30.01 in 10.0 mi East 4.6 mph - N/A   Clear
10:53 PM 78.1 °F - 68.0 °F 71% 30.02 in 10.0 mi East 6.9 mph - N/A   Clear
11:53 PM 79.0 °F - 70.0 °F 74% 30.02 in 10.0 mi ESE 9.2 mph - N/A   Overcast